THY4RM LTFM-LGTS

Flight info

Callsign THY4RM
Flight time 1h 3m
Altitude 32000
Route BARPE UM603 ARNAS
Aircraft A21N/M-SDE3FGHIRWY/LB1

Departure

Time 2026-05-06 02:08
Airport İstanbul Airport (LTFM)

Arrival

Time 2026-05-06 03:12
Airport Thessaloniki Macedonia International Airport (LGTS)
Time Latitude Longitude Altitude Speed Heading
2026-05-06 01:33 41.26087 28.73587 334 ft 0 kts 107°
2026-05-06 01:51 41.26088 28.73581 334 ft 2 kts 107°
2026-05-06 01:51 41.26091 28.73569 334 ft 1 kts 107°
2026-05-06 01:52 41.26094 28.73550 334 ft 2 kts 91°
2026-05-06 01:52 41.26093 28.73530 334 ft 2 kts 79°
2026-05-06 01:52 41.26089 28.73511 334 ft 2 kts 65°
2026-05-06 01:52 41.26081 28.73494 334 ft 2 kts 51°
2026-05-06 01:53 41.26070 28.73479 334 ft 2 kts 38°
2026-05-06 01:53 41.26058 28.73469 334 ft 2 kts 24°
2026-05-06 01:53 41.26050 28.73465 334 ft 1 kts 16°
2026-05-06 01:53 41.26046 28.73463 334 ft 0 kts 16°
2026-05-06 01:57 41.26047 28.73464 334 ft 0 kts 16°
2026-05-06 01:57 41.26060 28.73468 334 ft 2 kts 16°
2026-05-06 01:58 41.26084 28.73478 334 ft 4 kts 18°
2026-05-06 01:58 41.26122 28.73494 334 ft 6 kts 18°
2026-05-06 01:58 41.26176 28.73512 334 ft 8 kts
2026-05-06 01:58 41.26218 28.73452 334 ft 10 kts 276°
2026-05-06 01:59 41.26221 28.73345 334 ft 12 kts 270°
2026-05-06 01:59 41.26220 28.73222 334 ft 14 kts 269°
2026-05-06 01:59 41.26225 28.73129 334 ft 6 kts 318°
2026-05-06 01:59 41.26283 28.73114 334 ft 9 kts
2026-05-06 02:00 41.26358 28.73115 334 ft 11 kts
2026-05-06 02:00 41.26446 28.73115 334 ft 13 kts 360°
2026-05-06 02:00 41.26543 28.73114 334 ft 14 kts 360°
2026-05-06 02:00 41.26651 28.73113 334 ft 16 kts 359°
2026-05-06 02:01 41.26772 28.73111 334 ft 18 kts 359°
2026-05-06 02:01 41.26901 28.73110 334 ft 19 kts 360°
2026-05-06 02:01 41.27041 28.73109 334 ft 20 kts
2026-05-06 02:01 41.27188 28.73110 334 ft 21 kts
2026-05-06 02:02 41.27337 28.73108 334 ft 21 kts 360°
2026-05-06 02:02 41.27485 28.73106 334 ft 21 kts 359°
2026-05-06 02:02 41.27584 28.73083 334 ft 13 kts 314°
2026-05-06 02:02 41.27639 28.72987 334 ft 13 kts 346°
2026-05-06 02:03 41.27739 28.72983 334 ft 14 kts 359°
2026-05-06 02:03 41.27843 28.72981 334 ft 15 kts 359°
2026-05-06 02:03 41.27953 28.72980 334 ft 16 kts 359°
2026-05-06 02:03 41.28068 28.72978 334 ft 16 kts 359°
2026-05-06 02:04 41.28184 28.72976 334 ft 17 kts 359°
2026-05-06 02:04 41.28304 28.72973 334 ft 17 kts 359°
2026-05-06 02:04 41.28427 28.72971 334 ft 17 kts 359°
2026-05-06 02:04 41.28556 28.72968 334 ft 20 kts 359°
2026-05-06 02:05 41.28708 28.72964 334 ft 23 kts 359°
2026-05-06 02:05 41.28886 28.72959 334 ft 27 kts 359°
2026-05-06 02:05 41.29082 28.72955 334 ft 28 kts 359°
2026-05-06 02:05 41.29278 28.72952 334 ft 27 kts 360°
2026-05-06 02:06 41.29432 28.72948 334 ft 12 kts 358°
2026-05-06 02:06 41.29499 28.72888 334 ft 12 kts 292°
2026-05-06 02:06 41.29497 28.72768 334 ft 13 kts 264°
2026-05-06 02:06 41.29492 28.72638 334 ft 14 kts 271°
2026-05-06 02:07 41.29492 28.72509 334 ft 10 kts 268°
2026-05-06 02:07 41.29448 28.72459 334 ft 10 kts 181°
2026-05-06 02:07 41.29344 28.72459 334 ft 33 kts 180°
2026-05-06 02:07 41.28860 28.72474 334 ft 103 kts 181°
2026-05-06 02:08 41.27943 28.72491 334 ft 159 kts 179°
2026-05-06 02:08 41.26747 28.72510 766 ft 170 kts 179°
2026-05-06 02:08 41.25613 28.72533 1494 ft 164 kts 178°
2026-05-06 02:08 41.24497 28.72598 2157 ft 161 kts 175°
2026-05-06 02:09 41.23378 28.72682 2558 ft 166 kts 177°
2026-05-06 02:09 41.22176 28.72753 2846 ft 179 kts 176°
2026-05-06 02:09 41.20882 28.72828 3135 ft 194 kts 176°
2026-05-06 02:09 41.19483 28.72906 3405 ft 211 kts 178°
2026-05-06 02:10 41.17968 28.72548 3692 ft 233 kts 204°
2026-05-06 02:10 41.16615 28.71251 4039 ft 252 kts 220°
2026-05-06 02:10 41.15302 28.69618 4510 ft 264 kts 222°
2026-05-06 02:10 41.13943 28.67904 5181 ft 269 kts 221°
2026-05-06 02:11 41.12658 28.66141 5870 ft 273 kts 232°
2026-05-06 02:11 41.11776 28.63894 6587 ft 278 kts 251°
2026-05-06 02:11 41.11290 28.61398 7274 ft 282 kts 256°
2026-05-06 02:11 41.10876 28.58835 7947 ft 286 kts 256°
2026-05-06 02:12 41.10463 28.56255 8651 ft 287 kts 256°
2026-05-06 02:12 41.10033 28.53674 9298 ft 290 kts 256°
2026-05-06 02:12 41.09590 28.51077 9919 ft 294 kts 255°
2026-05-06 02:12 41.09125 28.48402 10458 ft 301 kts 255°
2026-05-06 02:13 41.08648 28.45664 10741 ft 316 kts 255°
2026-05-06 02:13 41.08139 28.42766 11163 ft 326 kts 255°
2026-05-06 02:13 41.07619 28.39811 11763 ft 329 kts 255°
2026-05-06 02:13 41.07103 28.36859 12352 ft 332 kts 255°
2026-05-06 02:14 41.06584 28.33871 12951 ft 334 kts 255°
2026-05-06 02:14 41.06058 28.30843 13567 ft 336 kts 254°
2026-05-06 02:14 41.05528 28.27810 14166 ft 337 kts 254°
2026-05-06 02:14 41.05001 28.24809 14739 ft 339 kts 254°
2026-05-06 02:15 41.04464 28.21766 15307 ft 340 kts 254°
2026-05-06 02:15 41.03919 28.18697 15866 ft 341 kts 254°
2026-05-06 02:15 41.03376 28.15637 16408 ft 343 kts 254°
2026-05-06 02:15 41.02823 28.12532 16941 ft 344 kts 254°
2026-05-06 02:16 41.02273 28.09448 17457 ft 346 kts 254°
2026-05-06 02:16 41.01715 28.06328 17963 ft 347 kts 254°
2026-05-06 02:16 41.01154 28.03194 18457 ft 349 kts 254°
2026-05-06 02:16 41.00591 28.00055 18936 ft 350 kts 254°
2026-05-06 02:17 41.00029 27.96926 19398 ft 352 kts 254°
2026-05-06 02:17 40.99461 27.93775 19854 ft 353 kts 254°
2026-05-06 02:17 40.98888 27.90600 20298 ft 355 kts 254°
2026-05-06 02:17 40.98314 27.87424 20730 ft 357 kts 255°
2026-05-06 02:18 40.97731 27.84194 21150 ft 358 kts 255°
2026-05-06 02:18 40.97155 27.80993 21535 ft 361 kts 255°
2026-05-06 02:18 40.96574 27.77760 21932 ft 363 kts 255°
2026-05-06 02:18 40.95983 27.74484 22327 ft 364 kts 255°
2026-05-06 02:19 40.95389 27.71224 22582 ft 370 kts 256°
2026-05-06 02:19 40.94771 27.67822 22753 ft 379 kts 256°
2026-05-06 02:19 40.94148 27.64419 22990 ft 384 kts 256°
2026-05-06 02:19 40.93512 27.60957 23334 ft 387 kts 256°
2026-05-06 02:20 40.92237 27.54019 24041 ft 391 kts 256°
2026-05-06 02:20 40.91586 27.50486 24381 ft 393 kts 256°
2026-05-06 02:20 40.90939 27.46983 24711 ft 395 kts 256°
2026-05-06 02:21 40.90287 27.43454 25034 ft 397 kts 256°
2026-05-06 02:21 40.89623 27.39878 25356 ft 399 kts 256°
2026-05-06 02:21 40.89025 27.36234 25665 ft 401 kts 262°
2026-05-06 02:21 40.88805 27.32548 25967 ft 403 kts 270°
2026-05-06 02:22 40.88994 27.28814 26266 ft 404 kts 277°
2026-05-06 02:22 40.89400 27.25157 26559 ft 406 kts 279°
2026-05-06 02:22 40.89856 27.21419 26839 ft 408 kts 279°
2026-05-06 02:22 40.90310 27.17681 27116 ft 410 kts 279°
2026-05-06 02:23 40.90748 27.13986 27386 ft 412 kts 278°
2026-05-06 02:23 40.91190 27.10186 27660 ft 414 kts 278°
2026-05-06 02:23 40.91623 27.06406 27928 ft 415 kts 278°
2026-05-06 02:23 40.92046 27.02618 28191 ft 417 kts 277°
2026-05-06 02:24 40.92318 26.98808 28445 ft 419 kts 273°
2026-05-06 02:24 40.92377 26.94940 28699 ft 421 kts 269°
2026-05-06 02:24 40.92228 26.91052 28952 ft 422 kts 266°
2026-05-06 02:24 40.92007 26.87209 29206 ft 424 kts 265°
2026-05-06 02:25 40.91770 26.83282 29454 ft 425 kts 265°
2026-05-06 02:25 40.91533 26.79356 29695 ft 427 kts 265°
2026-05-06 02:25 40.91297 26.75428 29934 ft 429 kts 265°
2026-05-06 02:25 40.91061 26.71479 30169 ft 430 kts 265°
2026-05-06 02:26 40.90825 26.67537 30399 ft 432 kts 265°
2026-05-06 02:26 40.90584 26.63519 30630 ft 433 kts 265°
2026-05-06 02:26 40.90344 26.59529 30853 ft 435 kts 265°
2026-05-06 02:26 40.90102 26.55544 31072 ft 436 kts 265°
2026-05-06 02:27 40.89858 26.51532 31287 ft 438 kts 265°
2026-05-06 02:27 40.89610 26.47482 31499 ft 439 kts 265°
2026-05-06 02:27 40.89360 26.43436 31706 ft 441 kts 265°
2026-05-06 02:27 40.89110 26.39390 31905 ft 442 kts 265°
2026-05-06 02:28 40.88857 26.35344 31963 ft 443 kts 265°
2026-05-06 02:28 40.88346 26.27210 31976 ft 443 kts 265°
2026-05-06 02:29 40.87655 26.19119 31978 ft 443 kts 263°
2026-05-06 02:29 40.86874 26.11040 31979 ft 443 kts 262°
2026-05-06 02:30 40.86083 26.02930 31979 ft 443 kts 263°
2026-05-06 02:30 40.85287 25.94839 31978 ft 443 kts 262°
2026-05-06 02:31 40.84333 25.86781 31979 ft 443 kts 261°
2026-05-06 02:31 40.83343 25.78768 31979 ft 443 kts 261°
2026-05-06 02:32 40.82356 25.70741 31979 ft 443 kts 261°
2026-05-06 02:32 40.81363 25.62670 31979 ft 443 kts 261°
2026-05-06 02:33 40.80376 25.54694 31979 ft 443 kts 261°
2026-05-06 02:33 40.80042 25.52002 31979 ft 443 kts 261°
2026-05-06 02:34 40.78370 25.38609 31979 ft 443 kts 261°
2026-05-06 02:34 40.77358 25.30546 31979 ft 443 kts 260°
2026-05-06 02:35 40.76342 25.22512 31979 ft 443 kts 260°
2026-05-06 02:35 40.75323 25.14522 31979 ft 443 kts 260°
2026-05-06 02:36 40.74296 25.06517 31979 ft 443 kts 260°
2026-05-06 02:36 40.73264 24.98487 31979 ft 443 kts 260°
2026-05-06 02:37 40.72230 24.90517 31979 ft 443 kts 260°
2026-05-06 02:37 40.71180 24.82485 31979 ft 443 kts 260°
2026-05-06 02:38 40.70133 24.74511 31979 ft 443 kts 260°
2026-05-06 02:38 40.69087 24.66541 31979 ft 443 kts 260°
2026-05-06 02:39 40.68028 24.58533 31979 ft 443 kts 260°
2026-05-06 02:39 40.66964 24.50548 31979 ft 443 kts 260°
2026-05-06 02:40 40.65889 24.42537 31979 ft 443 kts 260°
2026-05-06 02:40 40.64813 24.34569 31979 ft 443 kts 259°
2026-05-06 02:41 40.63738 24.26626 31979 ft 443 kts 259°
2026-05-06 02:41 40.62651 24.18581 31979 ft 443 kts 259°
2026-05-06 02:42 40.61564 24.10615 31979 ft 443 kts 259°
2026-05-06 02:42 40.60467 24.02651 31979 ft 443 kts 259°
2026-05-06 02:43 40.59368 23.94698 31979 ft 443 kts 259°
2026-05-06 02:43 40.58244 23.86578 31979 ft 443 kts 259°
2026-05-06 02:44 40.57135 23.78653 31979 ft 443 kts 259°
2026-05-06 02:44 40.56014 23.70693 31979 ft 443 kts 259°
2026-05-06 02:45 40.54890 23.62757 31703 ft 440 kts 259°
2026-05-06 02:45 40.54325 23.58786 30735 ft 447 kts 259°
2026-05-06 02:45 40.53746 23.54720 29667 ft 454 kts 259°
2026-05-06 02:45 40.53212 23.50643 29214 ft 447 kts 262°
2026-05-06 02:46 40.52867 23.46635 28782 ft 441 kts 266°
2026-05-06 02:46 40.52710 23.42602 28334 ft 436 kts 269°
2026-05-06 02:46 40.52640 23.38675 27892 ft 430 kts 269°
2026-05-06 02:46 40.52579 23.34765 27446 ft 426 kts 269°
2026-05-06 02:47 40.52518 23.30940 26998 ft 421 kts 268°
2026-05-06 02:47 40.52454 23.27143 26559 ft 417 kts 268°
2026-05-06 02:47 40.52386 23.23350 26173 ft 411 kts 268°
2026-05-06 02:47 40.52318 23.19631 25840 ft 404 kts 268°
2026-05-06 02:48 40.52249 23.15962 25531 ft 399 kts 268°
2026-05-06 02:48 40.52179 23.12326 25230 ft 398 kts 268°
2026-05-06 02:48 40.52108 23.08744 25038 ft 391 kts 268°
2026-05-06 02:48 40.52037 23.05217 24988 ft 376 kts 268°
2026-05-06 02:49 40.51969 23.01835 24911 ft 363 kts 268°
2026-05-06 02:49 40.51903 22.98613 24845 ft 350 kts 268°
2026-05-06 02:49 40.51722 22.95470 24814 ft 339 kts 256°
2026-05-06 02:49 40.50858 22.92658 24695 ft 332 kts 236°
2026-05-06 02:50 40.49265 22.90452 23997 ft 339 kts 213°
2026-05-06 02:50 40.47122 22.89235 23378 ft 341 kts 190°
2026-05-06 02:50 40.44776 22.89149 23120 ft 332 kts 169°
2026-05-06 02:50 40.42641 22.90131 22792 ft 327 kts 148°
2026-05-06 02:51 40.40919 22.92032 22198 ft 331 kts 128°
2026-05-06 02:51 40.39810 22.94742 21399 ft 340 kts 105°
2026-05-06 02:51 40.39529 22.97792 20868 ft 340 kts 89°
2026-05-06 02:51 40.39590 23.00859 20506 ft 337 kts 88°
2026-05-06 02:52 40.39672 23.03934 20100 ft 335 kts 88°
2026-05-06 02:52 40.39737 23.06989 19643 ft 332 kts 88°
2026-05-06 02:52 40.39793 23.09986 19184 ft 330 kts 86°
2026-05-06 02:52 40.40268 23.12933 18685 ft 329 kts 65°
2026-05-06 02:53 40.41502 23.15388 18218 ft 326 kts 44°
2026-05-06 02:53 40.43319 23.17086 17757 ft 323 kts 23°
2026-05-06 02:53 40.45481 23.17823 17286 ft 321 kts
2026-05-06 02:53 40.47679 23.17507 16814 ft 318 kts 342°
2026-05-06 02:54 40.49622 23.16233 16314 ft 316 kts 322°
2026-05-06 02:54 40.51110 23.14162 15808 ft 314 kts 302°
2026-05-06 02:54 40.51959 23.11559 15335 ft 310 kts 281°
2026-05-06 02:54 40.52135 23.08778 14903 ft 304 kts 269°
2026-05-06 02:55 40.52074 23.05981 14217 ft 313 kts 268°
2026-05-06 02:55 40.51988 23.03106 13715 ft 310 kts 268°
2026-05-06 02:55 40.51918 23.00322 13392 ft 304 kts 268°
2026-05-06 02:55 40.51849 22.97570 13065 ft 300 kts 268°
2026-05-06 02:56 40.51778 22.94898 12699 ft 298 kts 268°
2026-05-06 02:56 40.51706 22.92215 12319 ft 297 kts 268°
2026-05-06 02:56 40.51634 22.89531 11943 ft 295 kts 268°
2026-05-06 02:56 40.51564 22.86906 11574 ft 294 kts 268°
2026-05-06 02:57 40.51492 22.84248 11201 ft 292 kts 268°
2026-05-06 02:57 40.51642 22.81578 10791 ft 291 kts 287°
2026-05-06 02:57 40.52534 22.79346 10389 ft 290 kts 314°
2026-05-06 02:57 40.54103 22.77720 10031 ft 286 kts 324°
2026-05-06 02:58 40.55620 22.76015 9648 ft 285 kts 315°
2026-05-06 02:58 40.57128 22.74368 9243 ft 284 kts 332°
2026-05-06 02:58 40.58997 22.73664 8829 ft 283 kts 359°
2026-05-06 02:58 40.60923 22.74037 8479 ft 279 kts 15°
2026-05-06 02:59 40.62756 22.74785 8199 ft 270 kts 19°
2026-05-06 02:59 40.64484 22.75562 7961 ft 261 kts 19°
2026-05-06 02:59 40.66182 22.76370 7655 ft 255 kts 24°
2026-05-06 02:59 40.67732 22.77427 7266 ft 253 kts 30°
2026-05-06 03:00 40.69255 22.78610 6867 ft 252 kts 31°
2026-05-06 03:00 40.70742 22.79793 6475 ft 251 kts 31°
2026-05-06 03:00 40.72214 22.80970 6241 ft 242 kts 31°
2026-05-06 03:00 40.73637 22.82112 6038 ft 233 kts 33°
2026-05-06 03:01 40.74766 22.83569 5675 ft 230 kts 66°
2026-05-06 03:01 40.74970 22.85616 5447 ft 228 kts 102°
2026-05-06 03:01 40.74332 22.87509 5324 ft 228 kts 130°
2026-05-06 03:01 40.73080 22.88774 5196 ft 228 kts 159°
2026-05-06 03:02 40.71576 22.89392 5094 ft 228 kts 167°
2026-05-06 03:02 40.70010 22.89404 4908 ft 225 kts 198°
2026-05-06 03:02 40.68706 22.88341 4541 ft 225 kts 231°
2026-05-06 03:02 40.68056 22.86495 4170 ft 225 kts 264°
2026-05-06 03:03 40.68246 22.84484 3838 ft 223 kts 292°
2026-05-06 03:03 40.69168 22.82867 3483 ft 222 kts 327°
2026-05-06 03:03 40.70588 22.82096 3340 ft 221 kts 346°
2026-05-06 03:03 40.72069 22.81624 3337 ft 222 kts 347°
2026-05-06 03:04 40.73540 22.81180 3320 ft 211 kts 347°
2026-05-06 03:04 40.74981 22.80878 3312 ft 209 kts
2026-05-06 03:04 40.76263 22.81519 3326 ft 190 kts 43°
2026-05-06 03:04 40.76928 22.82997 3369 ft 184 kts 73°
2026-05-06 03:05 40.77206 22.84545 3318 ft 166 kts 79°
2026-05-06 03:05 40.77248 22.86036 3297 ft 162 kts 107°
2026-05-06 03:05 40.76769 22.87350 3360 ft 157 kts 122°
2026-05-06 03:05 40.76118 22.88493 3322 ft 152 kts 138°
2026-05-06 03:06 40.75245 22.89275 3329 ft 152 kts 153°
2026-05-06 03:06 40.74273 22.89812 3329 ft 152 kts 161°
2026-05-06 03:06 40.73259 22.90232 3329 ft 152 kts 164°
2026-05-06 03:06 40.72242 22.90602 3329 ft 152 kts 165°
2026-05-06 03:07 40.71222 22.90952 3329 ft 152 kts 166°
2026-05-06 03:07 40.70204 22.91290 3328 ft 152 kts 166°
2026-05-06 03:07 40.69176 22.91625 3223 ft 152 kts 166°
2026-05-06 03:07 40.68144 22.91957 3031 ft 151 kts 166°
2026-05-06 03:08 40.67134 22.92279 2831 ft 150 kts 167°
2026-05-06 03:08 40.66111 22.92604 2630 ft 150 kts 167°
2026-05-06 03:08 40.65108 22.92923 2433 ft 150 kts 167°
2026-05-06 03:08 40.64083 22.93248 2231 ft 149 kts 167°
2026-05-06 03:09 40.63081 22.93566 2034 ft 149 kts 167°
2026-05-06 03:09 40.62078 22.93884 1838 ft 148 kts 167°
2026-05-06 03:09 40.61073 22.94204 1639 ft 148 kts 167°
2026-05-06 03:09 40.60081 22.94519 1443 ft 147 kts 166°
2026-05-06 03:10 40.59081 22.94837 1247 ft 147 kts 166°
2026-05-06 03:10 40.58089 22.95153 1051 ft 147 kts 166°
2026-05-06 03:10 40.57098 22.95470 857 ft 146 kts 166°
2026-05-06 03:10 40.56115 22.95783 662 ft 146 kts 166°
2026-05-06 03:11 40.55130 22.96090 466 ft 145 kts 166°
2026-05-06 03:11 40.54145 22.96405 265 ft 145 kts 166°
2026-05-06 03:11 40.53162 22.96716 87 ft 144 kts 166°
2026-05-06 03:11 40.52243 22.97009 13 ft 108 kts 165°
2026-05-06 03:12 40.51796 22.97153 11 ft 34 kts 166°
2026-05-06 03:12 40.51585 22.97217 15 ft 23 kts 165°
2026-05-06 03:12 40.51516 22.97336 15 ft 5 kts 89°
2026-05-06 03:12 40.51526 22.97393 15 ft 6 kts 52°
2026-05-06 03:13 40.51577 22.97404 15 ft 8 kts 345°
2026-05-06 03:13 40.51641 22.97382 15 ft 10 kts 346°
2026-05-06 03:13 40.51717 22.97358 14 ft 12 kts 347°
2026-05-06 03:13 40.51805 22.97331 14 ft 13 kts 346°
2026-05-06 03:14 40.51904 22.97300 13 ft 15 kts 346°
2026-05-06 03:14 40.52012 22.97266 13 ft 16 kts 346°
2026-05-06 03:14 40.52121 22.97232 14 ft 16 kts 346°
2026-05-06 03:14 40.52227 22.97196 15 ft 15 kts 346°
2026-05-06 03:15 40.52337 22.97162 15 ft 16 kts 353°
2026-05-06 03:15 40.52371 22.97231 15 ft 10 kts 110°
2026-05-06 03:15 40.52321 22.97308 15 ft 12 kts 136°
2026-05-06 03:15 40.52266 22.97379 16 ft 8 kts 135°
2026-05-06 03:16 40.52253 22.97454 16 ft 9 kts 62°
2026-05-06 03:16 40.52301 22.97502 16 ft 8 kts 11°
2026-05-06 03:16 40.52333 22.97502 16 ft 2 kts 356°
2026-05-06 03:16 40.52356 22.97501 16 ft 4 kts 360°
2026-05-06 03:17 40.52362 22.97501 15 ft 0 kts